Weather reports worldwide

Advertisment
Trapani/Birgi, Italy (16429): temperature & dewpoint: 18.06.2018 11:00:00 - 24.06.2018 11:00:00 (CEST)Trapani/Birgi, Italy (16429): wind speed: 18.06.2018 11:00:00 - 24.06.2018 11:00:00 (CEST)Trapani/Birgi, Italy (16429): wind direction: 18.06.2018 11:00:00 - 24.06.2018 11:00:00 (CEST)Trapani/Birgi, Italy (16429): reduced air pressure: 18.06.2018 11:00:00 - 24.06.2018 11:00:00 (CEST)Trapani/Birgi, Italy (16429): visibility: 18.06.2018 11:00:00 - 24.06.2018 11:00:00 (CEST)Trapani/Birgi, Italy (16429): sunshine duration: 18.06.2018 11:00:00 - 24.06.2018 11:00:00 (CEST)
Date & Time tt [°C] td [°C] ff [km/h] ff [kn] dd ppp [hPa] vv [km] sd [min]
24.06.2018 11:00:00 25,0 19,6 15 8 NNW 1015,3 20 60
24.06.2018 10:00:00 25,0 20,3 13 7 WNW 1014,9 20 12
24.06.2018 09:00:00 24,0 18,7 4 2 ESE 1014,7 20 60
24.06.2018 08:00:00 22,0 17,6 11 6 ESE 1014,4 18 60
24.06.2018 07:00:00 20,2 15,6 9 5 E 1014,1 12 -
24.06.2018 06:00:00 20,2 15,6 8 4 E 1014,1 10 -
24.06.2018 05:00:00 21,0 16,4 11 6 ESE 1014,1 12 -
24.06.2018 04:00:00 21,0 16,6 11 6 ESE 1014,2 12 -
24.06.2018 03:00:00 21,0 16,8 9 5 ESE 1014,5 12 -
24.06.2018 02:00:00 21,0 16,8 4 2 SE 1015,0 12 -
24.06.2018 01:00:00 21,2 16,8 8 4 ESE 1015,0 12 -
24.06.2018 00:00:00 21,4 17,4 4 2 SW 1015,0 12 -
23.06.2018 23:00:00 21,6 17,4 4 2 W 1014,9 12 -
23.06.2018 22:00:00 22,2 18,4 9 5 W 1014,3 12 -
23.06.2018 21:00:00 22,6 18,8 11 6 WNW 1013,9 15 -
23.06.2018 20:00:00 23,8 19,7 13 7 W 1013,6 15 12
23.06.2018 19:00:00 24,4 20,5 15 8 W 1013,4 18 60
23.06.2018 18:00:00 25,2 20,9 16 9 W 1014,0 18 60
23.06.2018 17:00:00 25,4 20,9 18 10 WSW 1014,3 18 60
23.06.2018 16:00:00 25,8 20,6 22 12 WSW 1014,5 18 60
23.06.2018 15:00:00 26,2 21,0 24 13 W 1014,9 20 60
23.06.2018 14:00:00 25,4 20,0 22 12 WSW 1015,1 20 60
23.06.2018 13:00:00 26,0 19,4 26 14 WSW 1015,2 20 60
23.06.2018 12:00:00 25,2 20,2 21 11 WSW 1015,2 18 60
23.06.2018 11:00:00 25,0 19,8 21 11 WSW 1015,1 18 60
23.06.2018 10:00:00 25,0 19,8 18 10 WSW 1015,1 15 54
23.06.2018 09:00:00 23,8 18,9 16 9 WSW 1015,1 10 42
23.06.2018 08:00:00 23,0 18,1 15 8 SW 1015,0 10 0
23.06.2018 07:00:00 22,0 17,4 13 7 SW 1014,8 8 -
23.06.2018 06:00:00 22,0 17,4 11 6 WSW 1014,5 7 -
23.06.2018 05:00:00 20,2 15,6 8 4 SE 1014,3 5 -
23.06.2018 04:00:00 20,0 15,4 9 5 SE 1014,5 5 -
23.06.2018 03:00:00 20,0 15,4 9 5 SE 1014,5 5 -
23.06.2018 02:00:00 20,4 15,8 11 6 ESE 1015,1 10 -
23.06.2018 01:00:00 21,0 16,4 8 4 SE 1015,1 10 -
23.06.2018 00:00:00 21,4 16,8 8 4 SSE 1015,1 10 -
22.06.2018 23:00:00 21,8 17,2 8 4 SSW 1015,1 10 -
22.06.2018 22:00:00 22,0 17,6 5 3 SSW 1014,1 10 -
22.06.2018 21:00:00 23,0 19,2 4 2 SW 1014,2 8 -
22.06.2018 20:00:00 24,8 21,1 9 5 SW 1014,3 10 18
22.06.2018 19:00:00 25,2 21,3 11 6 WSW 1014,1 12 42
22.06.2018 18:00:00 24,4 20,3 16 9 WSW 1014,4 12 60
22.06.2018 17:00:00 25,4 21,3 18 10 SW 1014,8 12 60
22.06.2018 16:00:00 25,4 21,5 16 9 SW 1015,0 12 60
22.06.2018 15:00:00 26,2 22,1 18 10 SW 1015,2 14 60
22.06.2018 14:00:00 25,6 21,5 15 8 WSW 1016,0 14 60
22.06.2018 13:00:00 24,8 20,7 16 9 SW 1016,1 14 60
22.06.2018 12:00:00 26,0 19,6 18 10 SW 1016,1 12 60
22.06.2018 11:00:00 25,4 20,2 22 12 SSW 1016,1 12 60
22.06.2018 10:00:00 25,0 18,0 11 6 S 1016,1 12 60
22.06.2018 09:00:00 23,0 18,1 13 7 S 1016,2 10 60
22.06.2018 08:00:00 20,8 15,8 8 4 SSE 1016,1 10 60
22.06.2018 07:00:00 19,0 14,1 8 4 ESE 1016,0 9 -
22.06.2018 06:00:00 18,6 14,1 8 4 E 1015,8 9 -
22.06.2018 05:00:00 19,0 14,3 9 5 SE 1015,8 9 -
22.06.2018 04:00:00 19,4 14,7 8 4 ESE 1016,1 9 -
22.06.2018 03:00:00 20,0 15,2 9 5 SE 1016,4 9 -
22.06.2018 02:00:00 20,0 15,4 9 5 SE 1016,7 10 -
22.06.2018 01:00:00 20,4 15,8 9 5 SE 1016,9 10 -
22.06.2018 00:00:00 21,2 16,8 8 4 SE 1016,8 10 -
21.06.2018 23:00:00 21,6 17,4 4 2 SE 1016,6 10 -
21.06.2018 22:00:00 22,4 18,4 5 3 SSW 1016,2 14 -
21.06.2018 21:00:00 23,0 19,6 5 3 SW 1016,1 14 -
21.06.2018 20:00:00 24,4 20,9 9 5 WSW 1016,0 12 18
21.06.2018 19:00:00 25,2 20,9 13 7 WSW 1016,2 11 54
21.06.2018 18:00:00 25,6 20,2 11 6 WSW 1016,4 12 60
21.06.2018 17:00:00 25,8 21,0 13 7 WSW 1016,8 14 60
21.06.2018 16:00:00 25,4 20,7 16 9 SW 1017,1 14 60
21.06.2018 15:00:00 26,2 19,8 16 9 WSW 1017,2 16 60
21.06.2018 14:00:00 26,0 19,4 13 7 SW 1017,8 16 60
21.06.2018 13:00:00 25,4 19,1 22 12 WSW 1017,8 14 60
21.06.2018 12:00:00 25,2 19,4 18 10 WSW 1018,0 12 60
21.06.2018 11:00:00 25,0 20,0 13 7 WSW 1018,0 10 60
21.06.2018 10:00:00 24,0 19,1 8 4 WSW 1018,1 7 60
21.06.2018 09:00:00 22,2 17,4 4 2 N 1018,1 7 -
21.06.2018 08:00:00 20,6 15,8 8 4 SE 1018,0 7 0
21.06.2018 07:00:00 18,8 14,1 5 3 ESE 1017,6 9 -
21.06.2018 06:00:00 18,0 13,5 8 4 SE 1017,3 10 -
21.06.2018 05:00:00 18,4 13,9 5 3 ESE 1017,5 12 -
21.06.2018 04:00:00 18,4 13,9 8 4 SE 1017,7 12 -
21.06.2018 03:00:00 19,2 13,6 8 4 ESE 1017,8 12 -
21.06.2018 02:00:00 19,0 14,5 5 3 SE 1018,1 12 -
21.06.2018 01:00:00 19,4 14,9 8 4 SE 1018,1 12 -
21.06.2018 00:00:00 20,4 16,0 5 3 SSE 1018,2 12 -
20.06.2018 23:00:00 21,2 17,0 8 4 S 1018,1 12 -
20.06.2018 22:00:00 21,4 17,4 5 3 SSW 1018,0 12 -
20.06.2018 21:00:00 22,4 18,8 4 2 SW 1017,2 14 -
20.06.2018 20:00:00 24,0 20,1 5 3 W 1017,1 15 -
20.06.2018 19:00:00 24,0 18,9 5 3 SSW 1017,0 15 0
20.06.2018 18:00:00 23,6 19,1 15 8 SE 1017,0 15 0
20.06.2018 17:00:00 23,0 18,8 21 11 SE 1017,5 15 0
20.06.2018 16:00:00 23,4 19,1 13 7 ESE 1017,5 14 0
20.06.2018 15:00:00 24,2 19,3 5 3 N 1017,2 2,5 0
20.06.2018 14:00:00 25,2 21,5 22 12 NNW 1016,7 14 12
20.06.2018 13:00:00 26,0 21,9 24 13 NNW 1017,0 14 60
20.06.2018 12:00:00 27,2 21,0 21 11 NNW 1017,1 14 60
20.06.2018 11:00:00 26,0 21,0 18 10 NNW 1017,0 14 36
20.06.2018 10:00:00 24,4 19,9 15 8 NNW 1017,1 14 12
20.06.2018 09:00:00 23,8 19,3 11 6 N 1017,0 14 48
20.06.2018 08:00:00 23,2 19,0 4 2 N 1016,7 12 12
20.06.2018 07:00:00 20,0 15,7 2 1 ESE 1016,4 18 -
20.06.2018 06:00:00 20,0 15,7 2 1 E 1016,2 15 -
20.06.2018 05:00:00 19,0 14,7 2 1 SSW 1015,9 12 -
20.06.2018 04:00:00 19,0 14,7 5 3 SSE 1015,9 12 -
20.06.2018 03:00:00 20,0 16,4 2 1 NW 1016,1 12 -
20.06.2018 02:00:00 20,0 16,4 2 1 W 1016,1 12 -
20.06.2018 01:00:00 21,0 17,4 5 3 SE 1016,2 12 -
20.06.2018 00:00:00 21,8 18,2 5 3 ENE 1016,2 12 -
19.06.2018 23:00:00 21,8 18,6 4 2 S 1016,0 12 -
19.06.2018 22:00:00 22,8 19,2 5 3 NNE 1015,6 12 -
19.06.2018 21:00:00 24,0 20,3 11 6 NNE 1015,1 12 -
19.06.2018 20:00:00 25,0 21,3 15 8 N 1014,7 18 -
19.06.2018 19:00:00 26,0 21,9 18 10 NNW 1014,1 16 60
19.06.2018 18:00:00 25,4 20,2 21 11 NW 1014,3 16 60
19.06.2018 17:00:00 25,2 20,9 16 9 NNW 1014,7 16 0
19.06.2018 16:00:00 25,0 20,3 26 14 N 1014,4 14 0
19.06.2018 15:00:00 26,2 22,1 31 17 N 1014,1 14 60
19.06.2018 14:00:00 26,2 22,1 31 17 NNW 1014,3 16 60
19.06.2018 13:00:00 26,6 22,2 31 17 N 1014,5 16 60
19.06.2018 12:00:00 26,2 21,6 26 14 N 1014,5 10 54
19.06.2018 11:00:00 25,4 20,4 24 13 NNW 1014,5 16 60
19.06.2018 10:00:00 25,2 20,5 21 11 N 1014,1 14 60
19.06.2018 09:00:00 25,0 19,8 16 9 N 1014,1 14 60
19.06.2018 08:00:00 23,6 18,5 11 6 N 1014,1 12 24
19.06.2018 07:00:00 22,6 17,7 8 4 N 1014,0 10 -
19.06.2018 06:00:00 22,4 17,8 16 9 NNW 1013,3 11 -
19.06.2018 05:00:00 22,6 18,0 16 9 NNW 1013,3 10 -
19.06.2018 04:00:00 22,8 18,5 16 9 NNW 1013,8 10 -
19.06.2018 03:00:00 22,8 18,5 18 10 NW 1013,8 10 -
19.06.2018 02:00:00 23,0 19,2 18 10 NW 1013,9 10 -
19.06.2018 01:00:00 23,0 19,2 18 10 NW 1014,1 10 -
19.06.2018 00:00:00 23,0 19,2 18 10 NW 1014,1 10 -
18.06.2018 23:00:00 23,0 19,2 22 12 NW 1014,1 10 -
18.06.2018 22:00:00 23,0 19,2 16 9 NW 1014,0 12 -
18.06.2018 21:00:00 23,6 19,7 18 10 NNW 1013,3 12 -
18.06.2018 20:00:00 24,4 20,5 21 11 N 1013,2 12 0
18.06.2018 19:00:00 24,0 20,3 18 10 N 1013,1 10 60
18.06.2018 18:00:00 23,8 20,1 21 11 NW 1013,2 10 60
18.06.2018 17:00:00 23,8 20,1 18 10 NNW 1013,5 18 60
18.06.2018 16:00:00 24,0 20,3 21 11 NW 1013,9 18 60
18.06.2018 15:00:00 25,0 20,5 22 12 WNW 1014,2 18 60
18.06.2018 14:00:00 25,2 20,5 26 14 WNW 1014,4 18 60
18.06.2018 13:00:00 25,0 20,0 24 13 WNW 1014,5 10 60
18.06.2018 12:00:00 25,0 19,8 26 14 WNW 1014,7 20 60
18.06.2018 11:00:00 25,0 20,0 24 13 WNW 1014,3 18 60

tt = temperature
td = dewpoint
ff = wind speed
dd = wind direction
ppp = reduced air pressure
vv = visibility
sd = sunshine duration

Next stations